Temp
-8 -8 -7 -8 -7 -7 -7 -7 -7 -7 -7 -7 -7 -7 -7 -7 -7 -6 -6 -6 -6 -7 -6 -7 -7 -7 -7 -7 -6 -6 -7 -7 -7 -6 -6 -6 -6 -5 -5 -5 -5 -5 -4 -4 -4 -4 -4 -4 -5
-8 -8 -8 -8 -7 -7 -7 -7 -7 -8 -8 -7 -7 -7 -7 -7 -7 -7 -7 -6 -6 -6 -7 -7 -7 -7 -7 -7 -7 -7 -7 -7 -7 -7 -7 -7 -6 -6 -6 -6 -6 -5 -5 -4 -5 -5 -4 -4 -5
-8 -8 -8 -7 -7 -7 -7 -7 -7 -7 -7 -7 -7 -7 -7 -7 -7 -7 -7 -7 -7 -7 -7 -7 -7 -7 -7 -7 -7 -7 -7 -7 -7 -7 -7 -7 -7 -7 -7 -6 -6 -6 -5 -5 -5 -4 -5 -5 -5
-8 -9 -8 -8 -7 -7 -7 -7 -7 -8 -8 -7 -7 -7 -7 -7 -7 -7 -7 -7 -7 -7 -7 -7 -7 -7 -7 -7 -7 -7 -8 -8 -7 -7 -7 -7 -7 -7 -7 -7 -6 -6 -6 -5 -5 -5 -5 -5 -5
-9 -9 -9 -9 -8 -8 -8 -8 -7 -8 -8 -7 -7 -7 -7 -7 -7 -8 -7 -7 -7 -7 -7 -7 -7 -7 -7 -7 -8 -8 -8 -8 -8 -8 -8 -8 -8 -7 -7 -7 -7 -7 -6 -6 -6 -5 -5 -5 -5
-9 -9 -9 -9 -9 -8 -8 -8 -8 -8 -8 -8 -8 -7 -7 -7 -7 -8 -8 -7 -7 -7 -7 -7 -7 -8 -8 -7 -7 -7 -8 -8 -8 -8 -8 -8 -8 -8 -8 -8 -8 -7 -7 -6 -6 -6 -5 -5 -6
-10 -10 -10 -9 -9 -9 -9 -9 -8 -8 -8 -7 -8 -8 -7 -7 -7 -7 -7 -7 -7 -7 -7 -7 -8 -8 -7 -7 -7 -7 -8 -8 -8 -8 -8 -8 -8 -8 -8 -8 -8 -8 -8 -7 -7 -7 -6 -6 -6
-10 -10 -10 -10 -10 -9 -9 -8 -8 -9 -8 -7 -8 -8 -7 -7 -7 -7 -7 -7 -7 -7 -7 -7 -7 -7 -7 -7 -7 -8 -8 -8 -8 -8 -8 -8 -8 -8 -8 -9 -9 -8 -8 -8 -8 -7 -6 -7 -7
-10 -10 -10 -10 -9 -9 -9 -9 -9 -9 -8 -7 -8 -8 -7 -8 -7 -7 -7 -7 -7 -7 -7 -7 -7 -7 -7 -7 -8 -8 -8 -8 -9 -9 -8 -8 -8 -8 -8 -8 -9 -9 -9 -9 -8 -8 -7 -7 -7
-10 -10 -10 -9 -9 -9 -9 -9 -9 -9 -8 -8 -8 -8 -8 -8 -7 -7 -7 -7 -7 -7 -7 -7 -8 -8 -8 -8 -8 -8 -8 -9 -9 -9 -9 -9 -9 -9 -9 -8 -9 -9 -9 -9 -9 -8 -8 -8 -8
-9 -9 -9 -9 -9 -9 -9 -9 -9 -9 -8 -8 -8 -8 -8 -8 -8 -7 -7 -7 -7 -7 -7 -8 -8 -8 -8 -8 -8 -9 -9 -9 -9 -10 -10 -10 -10 -10 -9 -9 -9 -9 -10 -10 -9 -9 -8 -9 -9
-9 -9 -9 -9 -9 -9 -9 -9 -9 -8 -8 -8 -8 -8 -8 -8 -8 -8 -8 -7 -7 -8 -8 -8 -8 -8 -8 -8 -9 -9 -10 -10 -10 -10 -10 -10 -10 -10 -10 -10 -10 -10 -10 -10 -10 -9 -9 -9 -10
-9 -9 -9 -10 -9 -9 -9 -9 -8 -8 -8 -8 -8 -9 -8 -8 -8 -8 -8 -8 -8 -8 -8 -8 -8 -8 -8 -9 -9 -9 -9 -10 -10 -11 -11 -11 -11 -11 -11 -10 -11 -11 -11 -10 -10 -10 -10 -10 -10
-9 -9 -9 -9 -9 -9 -9 -8 -9 -8 -8 -8 -9 -8 -8 -8 -8 -8 -8 -8 -9 -8 -8 -8 -8 -9 -9 -9 -9 -10 -10 -10 -11 -11 -12 -12 -12 -12 -11 -11 -11 -11 -11 -11 -11 -11 -11 -11 -10
-9 -9 -10 -9 -9 -9 -9 -9 -9 -8 -9 -8 -8 -8 -8 -8 -8 -8 -8 -8 -8 -8 -9 -9 -9 -9 -9 -9 -10 -11 -11 -11 -12 -12 -12 -13 -13 -13 -12 -11 -12 -11 -11 -11 -11 -11 -11 -11 -11
-10 -10 -10 -9 -9 -9 -9 -10 -9 -9 -9 -8 -8 -8 -9 -9 -8 -9 -9 -8 -9 -9 -9 -9 -9 -9 -9 -11 -11 -12 -13 -13 -13 -13 -14 -13 -14 -14 -12 -13 -13 -12 -12 -12 -11 -11 -11 -11 -11
-10 -10 -10 -9 -10 -9 -9 -10 -9 -9 -9 -9 -9 -9 -9 -9 -9 -9 -9 -9 -9 -9 -9 -9 -9 -9 -10 -11 -12 -12 -13 -13 -14 -14 -14 -14 -15 -14 -13 -13 -14 -12 -12 -11 -11 -11 -11 -11 -11
-10 -10 -10 -10 -10 -9 -9 -9 -10 -9 -9 -9 -9 -9 -9 -9 -9 -9 -9 -9 -9 -9 -9 -9 -9 -10 -11 -11 -12 -12 -13 -14 -15 -16 -15 -15 -15 -15 -14 -14 -14 -13 -13 -12 -12 -11 -11 -11 -12
-10 -10 -10 -10 -10 -9 -9 -9 -9 -9 -9 -9 -9 -9 -9 -9 -9 -9 -9 -9 -9 -9 -9 -9 -9 -11 -11 -11 -12 -12 -13 -15 -17 -17 -17 -16 -16 -13 -14 -14 -14 -14 -14 -13 -12 -11 -11 -11 -11
-10 -10 -10 -10 -11 -9 -9 -9 -10 -10 -10 -9 -9 -9 -9 -9 -9 -9 -9 -9 -9 -9 -9 -9 -10 -11 -11 -13 -13 -13 -14 -16 -17 -18 -17 -17 -15 -13 -14 -14 -14 -14 -14 -13 -12 -11 -11 -11 -11
-11 -11 -11 -10 -10 -10 -9 -9 -10 -10 -9 -9 -9 -9 -9 -9 -9 -9 -9 -10 -10 -9 -9 -10 -11 -11 -12 -13 -13 -14 -14 -15 -16 -16 -16 -16 -15 -15 -14 -14 -15 -15 -14 -13 -12 -11 -11 -11 -12
-11 -12 -11 -11 -10 -10 -10 -8 -10 -10 -10 -9 -9 -9 -9 -9 -9 -9 -10 -10 -10 -9 -9 -11 -11 -12 -13 -13 -13 -14 -14 -15 -15 -15 -15 -15 -15 -15 -14 -14 -14 -15 -15 -13 -12 -12 -12 -12 -12
-11 -12 -11 -11 -11 -10 -10 -10 -9 -11 -10 -10 -9 -9 -9 -9 -10 -9 -10 -10 -9 -9 -10 -11 -12 -12 -12 -13 -13 -14 -14 -15 -15 -15 -15 -15 -15 -15 -15 -15 -15 -15 -14 -13 -12 -12 -12 -12 -12
-12 -12 -11 -11 -11 -10 -10 -11 -9 -10 -10 -10 -10 -9 -10 -10 -10 -10 -10 -10 -10 -10 -11 -11 -12 -12 -12 -13 -13 -14 -15 -15 -15 -15 -15 -15 -15 -15 -15 -14 -15 -14 -15 -13 -12 -12 -12 -12 -11
-14 -13 -12 -12 -11 -10 -11 -10 -10 -10 -10 -10 -10 -10 -10 -10 -10 -10 -10 -10 -10 -10 -11 -12 -12 -12 -12 -13 -13 -14 -14 -15 -15 -15 -14 -15 -15 -15 -15 -15 -14 -14 -13 -13 -13 -13 -12 -12 -12
-15 -15 -14 -13 -12 -11 -11 -10 -10 -11 -10 -11 -10 -10 -10 -10 -10 -10 -10 -10 -10 -10 -11 -12 -12 -12 -12 -13 -14 -14 -14 -15 -14 -14 -15 -14 -15 -15 -15 -14 -14 -14 -14 -13 -13 -13 -12 -12 -13
-14 -14 -14 -14 -13 -12 -10 -10 -10 -11 -11 -11 -11 -10 -10 -10 -10 -10 -10 -10 -10 -10 -11 -12 -12 -12 -13 -13 -14 -14 -15 -15 -15 -15 -15 -14 -14 -14 -14 -14 -14 -14 -14 -14 -13 -13 -13 -12 -12
-14 -14 -14 -14 -13 -13 -11 -10 -11 -11 -12 -11 -11 -11 -11 -10 -10 -11 -10 -10 -10 -11 -11 -12 -12 -12 -13 -13 -14 -15 -15 -15 -15 -15 -15 -14 -14 -14 -14 -14 -14 -14 -14 -14 -13 -13 -12 -12 -12
-15 -15 -14 -14 -13 -13 -12 -11 -11 -12 -12 -12 -11 -11 -11 -11 -11 -11 -11 -10 -10 -11 -11 -12 -12 -12 -13 -13 -14 -14 -15 -15 -14 -15 -14 -14 -14 -14 -14 -14 -14 -13 -13 -13 -12 -12 -12 -12 -12
-17 -16 -15 -15 -14 -14 -14 -12 -12 -12 -12 -12 -12 -12 -11 -11 -11 -11 -11 -11 -10 -11 -11 -12 -12 -12 -13 -14 -14 -14 -14 -15 -14 -14 -14 -14 -14 -14 -14 -14 -14 -14 -14 -13 -12 -13 -13 -12 -12
Height
5851 5853 5854 5855 5857 5855 5854 5860 5859 5859 5858 5858 5858 5860 5860 5860 5862 5864 5864 5865 5866 5866 5866 5867 5867 5867 5868 5868 5868 5868 5868 5868 5869 5870 5871 5872 5872 5872 5873 5874 5875 5875 5877 5876 5876 5876 5877 5879 5879
5849 5850 5851 5851 5853 5851 5852 5856 5857 5855 5854 5854 5856 5858 5858 5859 5859 5860 5861 5862 5864 5864 5865 5865 5866 5866 5866 5866 5866 5866 5865 5866 5866 5867 5868 5869 5869 5870 5870 5871 5872 5873 5874 5875 5876 5875 5875 5877 5878
5846 5847 5848 5849 5849 5849 5851 5852 5853 5851 5851 5851 5854 5855 5856 5856 5857 5859 5859 5860 5862 5862 5863 5864 5864 5864 5864 5864 5864 5864 5864 5864 5864 5864 5865 5866 5866 5867 5868 5867 5868 5870 5871 5872 5873 5873 5874 5874 5875
5844 5845 5845 5845 5845 5845 5848 5850 5851 5849 5849 5849 5850 5854 5854 5854 5855 5856 5856 5857 5858 5859 5860 5861 5862 5861 5861 5861 5861 5861 5860 5861 5861 5861 5862 5862 5863 5863 5864 5865 5865 5866 5868 5869 5870 5871 5871 5872 5873
5839 5840 5841 5841 5841 5842 5845 5847 5848 5848 5847 5848 5849 5851 5852 5852 5853 5852 5853 5854 5854 5856 5857 5858 5858 5858 5858 5857 5858 5858 5858 5858 5857 5858 5859 5858 5859 5859 5860 5860 5861 5863 5864 5865 5866 5867 5868 5869 5870
5833 5835 5837 5837 5837 5840 5843 5844 5845 5844 5844 5846 5847 5848 5849 5849 5850 5851 5851 5851 5851 5852 5854 5854 5854 5853 5853 5853 5854 5854 5853 5854 5854 5854 5854 5855 5855 5855 5855 5856 5856 5858 5859 5861 5863 5862 5864 5865 5867
5828 5830 5832 5832 5832 5836 5839 5840 5841 5840 5840 5841 5843 5845 5846 5845 5846 5846 5848 5849 5849 5849 5849 5850 5848 5848 5847 5847 5848 5848 5847 5848 5848 5849 5850 5850 5850 5850 5850 5851 5851 5852 5854 5856 5857 5858 5859 5862 5863
5826 5827 5828 5829 5829 5831 5833 5836 5835 5834 5835 5836 5839 5842 5842 5841 5842 5843 5844 5846 5845 5846 5846 5845 5843 5842 5841 5841 5841 5841 5841 5840 5842 5843 5844 5844 5844 5844 5844 5845 5845 5846 5848 5850 5852 5853 5854 5857 5858
5825 5826 5826 5826 5826 5827 5829 5830 5830 5830 5832 5832 5835 5837 5838 5838 5837 5839 5839 5842 5842 5842 5841 5840 5838 5837 5836 5835 5835 5835 5834 5833 5833 5836 5837 5837 5837 5837 5838 5838 5838 5839 5841 5844 5846 5847 5848 5853 5854
5822 5824 5823 5823 5823 5823 5824 5824 5825 5827 5828 5827 5830 5831 5833 5834 5834 5833 5834 5835 5836 5838 5837 5834 5833 5830 5829 5828 5828 5827 5826 5824 5824 5826 5827 5829 5829 5829 5830 5830 5831 5832 5834 5836 5839 5841 5843 5849 5851
5818 5819 5819 5820 5820 5819 5819 5820 5822 5823 5823 5823 5826 5827 5828 5829 5830 5830 5829 5828 5829 5830 5830 5830 5828 5825 5821 5820 5819 5818 5817 5816 5815 5816 5817 5817 5819 5820 5820 5821 5822 5823 5826 5829 5831 5834 5838 5843 5845
5814 5813 5815 5815 5815 5815 5815 5817 5818 5818 5818 5820 5822 5823 5823 5823 5824 5825 5824 5824 5823 5823 5822 5821 5819 5816 5815 5813 5811 5808 5807 5805 5806 5807 5805 5807 5808 5809 5810 5812 5813 5815 5816 5820 5823 5826 5831 5837 5839
5809 5809 5810 5810 5810 5810 5811 5812 5814 5812 5814 5818 5818 5819 5818 5819 5818 5819 5820 5820 5818 5815 5813 5811 5809 5808 5806 5803 5801 5799 5797 5795 5794 5794 5794 5795 5796 5798 5800 5803 5803 5805 5808 5810 5816 5819 5824 5829 5834
5805 5804 5805 5805 5805 5806 5807 5808 5811 5809 5812 5813 5813 5814 5814 5813 5813 5813 5815 5815 5809 5807 5806 5805 5802 5799 5797 5794 5790 5785 5782 5781 5781 5780 5782 5783 5785 5786 5790 5791 5793 5793 5799 5802 5806 5812 5818 5822 5828
5802 5802 5801 5799 5801 5803 5803 5805 5803 5805 5807 5808 5808 5808 5807 5807 5808 5809 5808 5806 5805 5802 5799 5797 5795 5791 5786 5781 5777 5772 5769 5768 5767 5767 5769 5770 5774 5777 5781 5782 5780 5787 5790 5795 5799 5801 5809 5818 5823
5796 5797 5796 5797 5797 5798 5799 5802 5799 5800 5802 5802 5802 5802 5801 5802 5804 5803 5800 5799 5797 5794 5791 5788 5784 5780 5776 5770 5766 5760 5753 5753 5752 5754 5757 5758 5763 5766 5769 5768 5773 5779 5783 5790 5793 5795 5801 5810 5815
5791 5791 5791 5791 5791 5792 5794 5795 5793 5795 5796 5797 5797 5797 5796 5796 5796 5795 5793 5792 5789 5787 5784 5780 5775 5769 5763 5759 5753 5748 5742 5737 5735 5739 5744 5746 5752 5756 5760 5760 5766 5768 5775 5784 5788 5790 5794 5799 5806
5782 5786 5787 5787 5787 5786 5788 5791 5789 5788 5789 5791 5791 5791 5791 5791 5789 5788 5788 5787 5784 5780 5776 5773 5767 5761 5756 5751 5745 5738 5731 5725 5721 5722 5728 5734 5741 5746 5749 5755 5760 5765 5767 5773 5781 5783 5788 5791 5794
5779 5780 5781 5782 5779 5779 5781 5784 5785 5783 5784 5785 5786 5786 5786 5785 5783 5782 5782 5780 5777 5773 5769 5764 5757 5750 5745 5739 5734 5728 5721 5711 5707 5706 5714 5722 5729 5724 5739 5746 5754 5758 5761 5766 5772 5775 5781 5786 5790
5772 5773 5776 5774 5772 5773 5775 5778 5779 5779 5779 5779 5779 5779 5779 5778 5776 5777 5775 5773 5769 5766 5760 5755 5748 5742 5735 5730 5725 5721 5714 5706 5698 5700 5707 5718 5722 5725 5733 5741 5747 5752 5755 5761 5767 5771 5775 5780 5783
5765 5767 5767 5766 5764 5767 5768 5773 5773 5773 5773 5773 5773 5771 5771 5772 5771 5770 5768 5765 5762 5758 5752 5748 5741 5734 5728 5725 5721 5717 5712 5704 5700 5702 5707 5715 5723 5727 5732 5737 5740 5746 5751 5755 5763 5764 5771 5776 5780
5756 5758 5757 5758 5758 5761 5761 5765 5768 5766 5766 5767 5766 5765 5765 5766 5765 5763 5761 5759 5756 5751 5745 5739 5733 5729 5724 5721 5717 5714 5710 5706 5702 5702 5708 5715 5721 5724 5726 5732 5735 5741 5746 5752 5759 5761 5765 5772 5778
5749 5747 5749 5750 5751 5753 5757 5755 5766 5761 5762 5762 5761 5760 5760 5761 5759 5757 5756 5754 5748 5744 5740 5735 5731 5726 5721 5718 5714 5712 5708 5708 5706 5706 5708 5710 5715 5721 5724 5728 5734 5738 5743 5747 5754 5758 5763 5769 5775
5740 5740 5741 5742 5744 5745 5751 5748 5759 5756 5757 5756 5755 5755 5755 5755 5754 5753 5751 5748 5743 5739 5736 5731 5727 5724 5719 5715 5712 5710 5708 5709 5708 5708 5710 5712 5714 5718 5722 5726 5731 5736 5739 5745 5749 5754 5761 5766 5769
5728 5733 5732 5733 5735 5738 5741 5741 5751 5749 5751 5751 5751 5750 5750 5750 5749 5748 5746 5743 5739 5736 5732 5728 5725 5721 5716 5713 5709 5708 5708 5708 5708 5708 5709 5711 5713 5715 5718 5723 5728 5733 5737 5743 5743 5749 5756 5763 5765
5719 5720 5721 5724 5727 5730 5733 5735 5744 5743 5744 5745 5745 5746 5745 5744 5744 5743 5742 5739 5736 5734 5730 5725 5722 5718 5714 5711 5708 5707 5706 5706 5705 5705 5706 5707 5708 5711 5716 5719 5722 5728 5734 5739 5742 5744 5751 5756 5761
5711 5709 5717 5715 5715 5718 5725 5731 5739 5738 5738 5739 5740 5740 5740 5739 5739 5739 5738 5736 5733 5731 5727 5723 5719 5715 5712 5709 5706 5706 5705 5703 5701 5700 5700 5702 5704 5707 5712 5716 5720 5724 5729 5735 5738 5743 5746 5752 5756
5698 5703 5704 5705 5705 5709 5718 5723 5731 5732 5731 5733 5735 5736 5736 5734 5734 5734 5734 5732 5730 5729 5725 5721 5717 5713 5711 5708 5706 5704 5702 5700 5697 5695 5692 5693 5696 5702 5708 5713 5718 5722 5726 5730 5733 5737 5744 5751 5752
5689 5691 5695 5697 5699 5701 5710 5717 5723 5727 5728 5728 5730 5731 5731 5731 5730 5731 5731 5728 5727 5726 5722 5719 5715 5712 5710 5707 5706 5705 5703 5699 5695 5692 5689 5688 5690 5697 5704 5710 5715 5721 5723 5723 5729 5734 5741 5745 5748
5674 5679 5684 5684 5690 5692 5699 5710 5713 5719 5722 5723 5723 5726 5726 5726 5726 5727 5727 5725 5724 5723 5720 5718 5714 5712 5709 5707 5704 5703 5702 5698 5694 5692 5690 5688 5690 5696 5703 5709 5714 5719 5720 5722 5729 5733 5738 5741 5743
Wind_Speed
17 18 18 19 20 23 24 20 20 20 22 21 22 21 19 16 11 12 12 11 11 10 8 7 6 6 8 9 10 11 12 13 14 15 16 16 15 15 17 16 17 18 17 16 12 11 10 9 8
15 16 15 18 19 24 23 20 20 20 23 24 22 19 18 15 14 13 12 13 12 10 8 8 8 8 10 11 11 11 12 14 15 16 17 19 19 18 17 18 18 19 16 18 15 14 12 12 11
16 14 16 19 21 25 22 21 20 22 24 24 21 18 18 17 16 14 12 12 12 11 11 12 12 12 12 14 14 15 15 16 17 18 18 21 21 21 21 21 19 20 21 20 19 17 16 15 13
23 16 13 17 22 24 22 20 19 21 24 25 22 19 18 19 15 15 14 14 13 12 13 14 16 16 16 16 17 18 17 18 19 18 18 20 23 24 24 24 24 22 24 24 23 21 20 18 16
35 27 29 21 22 20 20 17 16 22 25 25 23 20 20 20 18 19 17 16 15 14 15 16 17 17 18 17 16 16 17 20 22 20 19 20 21 24 27 29 28 26 26 26 25 25 24 21 18
39 42 36 33 32 28 22 21 21 25 26 27 25 23 21 21 23 21 19 17 16 16 17 19 19 19 20 21 21 23 23 22 21 22 23 23 23 24 26 30 32 31 29 29 28 28 27 25 21
27 30 30 33 36 25 25 24 25 27 28 27 23 23 21 24 25 23 23 19 17 19 21 24 23 22 24 26 27 30 30 28 28 28 28 28 28 28 27 28 33 35 34 32 30 31 30 27 23
20 21 21 22 23 23 21 22 26 26 27 28 23 22 23 23 24 26 24 20 19 23 25 26 26 27 29 30 31 32 32 33 35 34 32 33 32 31 31 29 32 36 38 36 34 33 34 27 25
18 18 21 18 19 20 23 25 26 25 25 29 23 22 24 23 26 26 26 22 20 25 29 29 29 29 31 32 33 34 35 37 38 36 36 36 35 35 34 35 34 36 39 39 39 35 35 29 26
17 22 22 20 24 23 23 23 24 25 26 27 24 24 24 24 26 25 27 27 25 26 28 29 29 30 32 34 35 37 39 41 42 41 39 37 37 37 36 37 38 38 40 41 41 41 38 30 26
18 22 24 24 27 25 20 21 21 26 24 28 24 23 25 26 23 22 25 29 27 29 28 26 29 32 35 37 39 40 43 44 46 45 44 43 41 38 38 39 41 42 43 43 43 42 41 32 28
20 21 20 22 22 25 23 22 22 24 26 25 23 22 25 25 22 21 22 27 29 29 29 29 33 35 37 38 41 44 47 49 48 48 51 47 46 43 41 42 42 44 41 45 45 45 42 36 30
21 21 19 20 21 23 25 24 24 26 28 24 25 26 27 24 23 23 24 26 29 30 31 34 35 36 38 42 45 50 53 54 53 51 49 47 47 47 43 43 45 49 44 46 49 46 43 41 32
21 20 21 21 22 22 23 24 23 30 28 26 24 27 26 25 25 26 25 25 31 32 32 33 36 40 42 45 50 52 52 50 48 49 48 48 47 47 41 47 38 33 47 43 47 51 46 42 34
22 20 22 25 22 19 23 22 27 29 27 27 27 27 28 28 26 26 26 29 31 31 34 35 37 41 45 49 47 46 48 49 49 50 48 49 48 46 46 42 31 37 35 50 43 51 45 41 41
23 21 23 24 22 22 22 19 29 28 29 28 29 27 28 29 26 26 29 31 30 32 34 37 40 44 46 39 41 46 50 48 46 46 47 50 48 46 52 42 45 29 31 43 34 48 51 40 35
25 24 24 23 23 23 23 20 29 28 30 30 29 28 29 29 27 27 29 30 31 32 35 38 42 44 39 38 42 46 48 51 53 49 48 53 47 47 50 54 42 50 34 49 37 43 43 51 47
33 25 24 23 24 25 25 21 26 29 30 28 27 28 29 28 28 29 28 29 31 32 34 38 42 39 34 38 39 40 42 45 51 47 46 47 47 43 43 50 47 46 48 47 36 42 41 47 47
30 27 24 23 27 28 25 21 23 30 29 27 27 27 26 27 29 29 28 29 29 30 34 37 41 32 35 37 34 31 34 42 38 35 40 42 45 34 35 35 42 39 40 43 39 44 42 37 46
29 30 25 27 30 28 25 21 23 27 29 28 27 26 25 26 28 27 28 28 28 30 34 39 32 29 35 34 27 25 25 22 15 22 34 38 39 30 35 35 31 35 41 37 35 48 28 43 42
30 29 28 31 32 31 27 19 20 25 30 27 25 25 24 26 27 24 27 27 28 29 35 36 26 28 32 28 21 20 17 9 6 13 23 35 34 25 30 27 26 25 29 31 32 24 39 30 36
32 31 35 33 33 30 31 19 16 21 25 23 24 21 20 24 23 23 24 26 26 28 35 29 22 27 30 24 17 14 11 11 9 15 19 22 22 23 22 22 23 25 24 19 27 24 28 35 26
33 36 36 35 33 31 29 32 14 19 20 19 20 20 18 20 22 22 23 24 24 29 32 23 19 26 28 21 15 9 3 4 6 12 15 19 21 23 21 20 23 27 25 24 32 30 29 30 30
37 38 38 38 35 34 27 32 14 19 20 17 18 19 17 19 22 21 22 20 21 27 29 20 17 21 21 18 15 9 5 6 7 10 14 16 18 21 21 24 23 22 24 29 31 32 27 19 25
39 36 39 40 38 35 31 32 17 21 19 18 17 17 18 20 20 21 20 17 20 25 25 16 14 14 16 17 13 9 8 9 10 11 14 16 20 23 26 27 27 22 17 27 30 25 22 23 21
34 37 40 40 38 39 35 32 20 20 20 19 18 19 19 19 20 20 18 16 19 24 22 15 14 12 14 16 16 13 12 13 15 17 19 20 20 23 29 32 32 31 28 29 29 30 28 29 30
38 41 33 38 43 45 40 34 19 19 19 19 19 19 18 18 18 18 17 16 18 22 19 14 13 12 13 10 14 16 17 18 19 22 24 24 24 25 30 31 32 33 33 34 37 35 27 18 24
44 40 39 42 45 43 37 35 22 22 20 18 19 18 18 18 17 17 16 14 16 20 17 13 11 12 15 12 9 12 14 15 14 15 29 29 29 27 30 32 32 29 28 34 36 31 29 23 19
47 47 47 45 46 45 38 33 26 25 22 19 19 18 17 17 16 16 15 12 14 17 16 13 9 11 13 13 10 9 9 8 7 5 12 13 25 30 28 28 27 26 27 34 30 30 25 29 25
48 47 46 49 50 46 41 38 32 25 24 21 19 20 20 17 15 15 14 10 11 15 14 11 7 8 12 10 10 12 15 8 7 3 6 11 12 24 24 17 20 20 29 20 21 24 20 18 19
Wind_Direction
258 259 257 259 257 255 255 251 246 244 245 243 236 236 245 252 230 219 225 227 217 225 236 246 253 264 275 276 278 284 288 286 282 279 278 275 269 267 271 269 269 267 270 262 254 263 273 267 265
263 264 260 261 257 254 256 253 248 245 247 246 244 237 230 226 221 220 222 228 230 234 243 255 274 284 289 290 293 294 295 295 293 288 285 280 274 272 267 267 267 266 263 264 256 255 258 263 264
262 267 267 263 263 261 256 253 246 243 243 247 238 224 219 226 223 223 225 227 234 244 256 260 264 274 283 288 294 299 299 297 295 294 290 284 279 272 271 267 259 258 262 259 256 255 259 257 257
255 262 270 266 261 261 255 249 239 238 242 240 233 216 221 232 230 232 223 228 242 253 259 267 274 278 279 280 284 290 298 300 298 294 295 288 283 277 272 266 266 258 255 256 256 253 253 257 256
254 258 271 265 260 267 257 249 240 244 239 239 238 228 222 224 227 232 231 234 245 257 269 273 276 284 290 291 295 292 301 297 302 298 297 297 291 282 274 270 263 260 258 257 253 254 253 252 253
260 261 263 265 263 268 254 252 242 240 238 238 243 234 227 224 226 230 239 245 253 264 272 274 280 288 290 293 295 294 292 293 291 293 293 296 296 292 280 269 267 264 260 256 255 252 252 253 251
256 258 263 269 268 249 252 250 241 245 236 235 237 243 231 235 231 234 235 243 256 267 271 275 278 282 292 295 293 296 295 292 293 292 289 291 293 292 288 279 268 264 260 258 256 254 251 252 253
247 250 258 255 248 248 250 245 245 251 239 236 238 237 241 244 242 242 247 251 261 271 274 275 278 284 289 292 291 287 285 285 284 286 286 286 286 284 284 276 269 264 261 258 257 256 251 250 251
257 246 245 254 261 254 244 245 252 248 237 242 239 238 241 244 250 247 253 256 259 268 274 277 282 286 287 287 286 285 284 280 281 278 278 279 279 280 279 273 267 260 256 256 256 254 255 251 247
257 247 252 249 267 259 253 245 243 238 238 243 243 244 247 248 250 256 259 264 265 264 269 276 282 285 286 284 283 281 279 278 278 276 274 269 268 272 270 269 266 260 254 250 252 252 255 254 247
256 254 261 263 254 269 259 247 234 235 239 242 244 249 254 253 249 250 257 265 266 267 268 273 278 279 282 282 281 280 278 276 277 275 273 271 266 263 264 264 262 259 255 249 247 249 250 252 245
256 253 256 261 258 259 256 247 241 240 242 248 253 252 252 257 263 259 260 264 269 276 279 279 280 283 283 282 281 281 279 278 274 273 272 269 265 262 257 260 259 260 256 247 245 246 248 247 244
263 265 257 255 254 250 249 248 241 244 246 248 254 259 259 261 265 267 267 270 273 274 278 285 289 286 283 283 283 281 279 277 276 272 270 266 261 257 256 257 259 248 245 250 245 244 245 245 242
263 265 261 256 250 252 253 251 242 244 245 254 258 259 261 265 267 268 268 271 269 278 286 284 286 288 287 286 286 284 282 280 275 270 264 259 256 251 252 256 235 245 237 245 250 242 242 242 239
260 262 265 261 258 256 256 255 248 246 251 256 259 265 270 271 273 274 270 265 273 281 284 285 284 287 292 294 288 283 278 275 272 267 262 259 255 249 232 239 232 233 236 233 249 242 243 243 235
257 257 260 261 262 257 256 255 252 253 256 259 265 269 273 277 280 273 270 275 281 285 289 291 293 294 297 293 288 284 281 278 272 267 262 256 251 246 240 247 254 231 242 237 236 241 240 235 225
257 251 253 257 257 255 251 240 255 256 261 266 269 271 274 281 280 271 275 281 284 286 287 292 298 307 303 296 291 287 283 278 272 261 252 251 249 249 248 252 256 254 240 236 225 229 237 234 231
250 255 256 258 257 252 251 246 256 259 259 265 272 276 277 279 272 272 275 276 280 285 291 296 305 309 296 290 291 288 287 281 273 260 242 242 241 242 243 239 244 251 255 247 230 231 223 241 224
255 256 254 257 256 253 254 250 253 263 268 270 270 266 272 271 270 272 277 278 283 289 296 308 312 310 303 303 302 295 292 283 275 253 231 230 235 227 216 230 237 244 247 254 238 214 222 220 223
253 255 256 254 259 259 255 246 251 260 266 269 269 272 271 271 268 272 275 281 289 295 307 314 320 313 311 309 302 303 299 290 259 230 224 224 232 216 222 231 236 238 247 251 236 226 214 215 209
254 255 253 252 257 262 258 249 253 255 260 266 270 269 271 267 268 273 278 288 291 304 314 321 323 323 314 313 303 309 300 276 214 219 227 222 229 232 221 225 230 227 235 237 218 215 207 210 215
251 254 250 252 254 259 268 256 251 257 262 271 273 274 268 266 271 276 282 288 295 311 319 326 327 319 318 310 301 310 303 263 200 196 214 224 232 235 224 218 222 226 220 220 234 198 193 208 205
248 250 252 253 253 254 258 266 228 256 269 271 269 271 274 275 277 277 282 287 306 318 323 324 313 318 318 300 295 295 328 247 212 197 215 219 218 223 224 227 217 219 218 183 194 189 174 183 205
252 251 256 258 257 251 253 261 239 261 263 269 276 281 276 275 278 278 281 292 314 321 324 318 305 321 312 294 295 285 224 220 212 196 203 222 232 232 223 211 208 220 190 177 192 206 203 198 232
252 254 253 254 254 258 247 249 251 254 260 267 274 276 277 277 281 280 284 301 314 320 325 305 294 317 309 292 293 275 241 226 221 218 222 231 229 224 212 201 199 191 197 197 195 194 210 215 212
245 244 245 252 253 253 252 249 238 245 254 266 273 275 277 279 283 282 288 298 312 319 325 309 287 301 313 301 287 279 258 244 242 237 228 219 219 226 218 205 210 202 197 204 189 195 218 204 220
240 244 245 250 251 251 247 249 240 248 250 259 267 270 272 276 279 281 284 293 311 318 330 324 287 302 313 314 289 285 273 271 266 258 248 238 224 215 217 217 221 217 218 214 215 198 194 224 228
240 243 240 243 250 255 254 252 245 249 242 251 258 267 266 269 273 276 278 291 309 319 335 333 302 299 308 311 311 314 281 273 266 263 257 234 225 219 214 223 221 231 235 225 218 220 232 230 255
249 249 246 245 247 252 255 256 255 247 249 248 256 258 261 270 268 269 273 290 307 318 336 335 335 319 314 315 316 318 304 305 283 297 271 210 218 213 215 221 226 232 242 218 220 222 219 229 253
245 247 246 244 243 250 253 244 251 244 244 243 251 255 258 264 262 263 269 280 303 314 333 336 348 354 341 335 324 321 318 319 329 300 130 177 176 201 208 215 239 238 234 208 219 229 231 232 244